Location: Boda
(47.1872°N, 9.5454°E)
Time: 18:04:17
(UTC+00:00)

Meteor 1-29 - Pass Details

Date: 14 May 2021
Orbit: 437 x 455 km, 97.7° (Epoch: 16 June)

Event Time Altitude Azimuth Distance (km) Brightness Sun altitude
Rises 01:57:16 0° 7° (N) 2,461 7.7 -15.1°
Reaches altitude 10° 01:59:21 10° 0° (N) 1,587 6.4 -14.9°
Maximum altitude 02:02:36 43° 288° (WNW) 647 3.5 -14.5°
Enters shadow 02:03:56 28° 235° (SW) 885 3.8 -14.4°
